Location: Newark
(34.6283°N, 36.0776°E)
Time: 20:25:38
(UTC+00:00)

Tiros 1 despin weight - Pass Details

Date: 26 September 2019
Orbit: 594 x 643 km, 48.2° (Epoch: 12 October)

Event Time Altitude Azimuth Distance (km) Brightness Sun altitude
Rises 08:57:43 0° 277° (W) 2,904 ? 53.5°
Reaches altitude 10° 09:00:34 10° 294° (WNW) 1,989 ? 53.6°
Maximum altitude 09:03:58 20° 342° (NNW) 1,433 ? 53.8°
Drops below altitude 10° 09:07:19 10° 30° (NNE) 1,968 ? 53.9°
Sets 09:10:08 0° 48° (NE) 2,863 ? 54.0°
